ONEWEB-0197 (48236 NORAD) Tracking and Keplerian Element Data

This shows tracking and keplerian element data for the satellite.

Feedback or suggestion? Click here.




ElementValue
Catalog48236
NameONEWEB-0197
Epoch Orbit192
Epoch Day173.83334491
Epoch Year2021
RAAN294.0567
Inclination87.5053
Eccentricity0.0010352
Argument of Perigee82.1403
Mean Anonmoly225.6372
Mean Motion14.33713889
Decay Rate-0.00906136
L11 48236U 21031AC 21173.83334491 -.00906136 00000-0 -34654+0 0 9997
L22 48236 87.5053 294.0567 0010352 82.1403 225.6372 14.33713889 1921

Live tracking and technical data element details for ONEWEB-0197 (NORAD 48236). ONEWEB-0197 can be tracked NOW for your location showing map with azimuth and elevation plus other details from your city location.

Track the satellite on the map from your city or location and see movement details for azimuth, elevation, latitude, longitude, range, height, and movement on the map or in text.







IsCatalogInMostPopularTable: catalog: 48236, numindb: 23
Update: records affected: 1



GetName: 48236 ONEWEB-0197

Hit Count: updated at: Thu, 24 Jun 2021 02:16:47 GMT